Regional Weather Roundup
Issued by NWS

Home | Current Version | Previous Version | Text Only | Print | Product List | Glossary Off
Versions: 1 2 3 4 5 6 7 8 9 10 11 12 13 14 15 16 17 18 19 20 21 22 23 24 25 26 27 28 29 30 31 32 33 34 35 36 37 38 39 40 41 42 43 44 45 46 47 48 49 50

000
ASUS45 KBOU 250907
RWRCO

WEATHER ROUNDUP FOR COLORADO
NATIONAL WEATHER SERVICE DENVER/BOULDER CO
200 AM MST SUN JAN 25 2015

NOTE: "FAIR" INDICATES FEW OR NO CLOUDS BELOW 12000 FEET WITH NO
SIGNIFICANT WEATHER AND/OR OBSTRUCTIONS TO VISIBILITY.

COZ001>005-013-030-031-251000-
...NORTHWEST COLORADO...

CITY           SKY/WX    TMP DP  RH WIND       PRES   REMARKS
CRAIG            N/A     15  11  83 CALM      30.35R
HAYDEN         CLOUDY    27  16  63 CALM      30.34R
MEEKER         MOCLDY    13   8  81 CALM      30.37R
MOUNT WERNER   NOT AVBL
STEAMBOAT SPGS CLOUDY    27  17  66 E5        30.33R WCI  21
WALDEN         PTCLDY    28  23  80 S6        30.25S WCI  22
$$

COZ006>008-011-251000-
...WEST CENTRAL VALLEYS...

CITY           SKY/WX    TMP DP  RH WIND       PRES   REMARKS
GRAND JUNCTION CLEAR     25  16  68 E3        30.37F
MONTROSE       PTCLDY    19  13  77 SE7       30.41R WCI  10
EAGLE          CLOUDY    25  19  80 E6        30.37S WCI  18
RIFLE          MOCLDY    23  17  78 CALM      30.40R
DELTA          PTCLDY    24  15  69 CALM      30.40S
NUCLA          PTCLDY    25  16  68 CALM      30.39S
$$

COZ017>023-064>068-251000-
...SOUTHWEST COLORADO...

CITY           SKY/WX    TMP DP  RH WIND       PRES   REMARKS
DURANGO        PTCLDY    20  15  81 N5        30.26F WCI  13
CORTEZ         CLEAR     21  15  78 CALM      30.27F
PAGOSA SPRINGS PTCLDY    16  15  95 CALM      30.27S
TELLURIDE      PTCLDY    27  12  52 SE3       30.37F
WOLF CREEK PAS NOT AVBL
$$

COZ009-010-012-014-032>034-037-058>063-251000-
...CENTRAL COLORADO...

CITY           SKY/WX    TMP DP  RH WIND       PRES   REMARKS
ASPEN          CLOUDY    25  18  74 CALM      30.35R
BUENA VISTA    PTCLDY    33  19  58 N10       30.24R WCI  24
COPPER MTN     LGT SNOW  23  18  80 W33G43    30.29R WCI   5
BERTHOUD PASS  HVY SNOW  14   9  79 MISG      30.21R VSB<1/4
COTTONWOOD PAS PTCLDY    34  18  51 W20G29    30.25R WCI  22
GUNNISON       PTCLDY    -6 -26  38 CALM      30.40S
KREMMLING      CLOUDY    30  18  59 W9        30.31S WCI  22
LEADVILLE      CLOUDY    26  18  71 N12G21    30.32R WCI  16
MONARCH PASS   PTCLDY    14  12  92 MISG      30.38S
SALIDA         PTCLDY    37  17  45 N8        30.30S
SUNLIGHT       CLOUDY    27  23  86 CALM        N/A
WILKERSON PASS PTCLDY    25  12  58 NW23G40   30.20F WCI  10
$$

COZ069>075-251000-
...SAN LUIS VALLEY/SANGRE DE CRISTO MOUNTAINS...

CITY           SKY/WX    TMP DP  RH WIND       PRES   REMARKS
ALAMOSA        MOCLDY     4   0  83 S6        30.28S WCI  -7
LA VETA PASS   NOT AVBL
SAGUACHE       MOCLDY    32  19  59 N9        30.28S WCI  24
$$

COZ035-036-038>040-251000-
...NORTHERN COLORADO FRONT RANGE...

CITY           SKY/WX    TMP DP  RH WIND       PRES   REMARKS
DENVER INTL AP PTCLDY    28  25  88 SE12      30.13S WCI  18
DMNS CITY PARK   N/A     34  25  71 SW3       30.13S
AURORA         PTCLDY    29  26  90 S9        30.14S WCI  21
FRONT RANGE AP NOT AVBL
ERIE MUNI ARPT CLEAR     35  28  74 SE8       30.12S WCI  29
BOULDER MUN AP CLEAR     30  27  86 W5        30.11S WCI  25
CENTENNIAL     PTCLDY    30  25  81 S9        30.13F WCI  22
BROOMFIELD     CLEAR     39  25  56 W12       30.12S
FORT COLLINS   CLEAR     28  23  80 S8        30.13S WCI  20
LONGMONT       CLEAR     31  26  81 NW5       30.14S WCI  27
$$

COZ041-046-047-076>085-087-088-251000-
...PIKES PEAK/PALMER DIVIDE AND SOUTHERN FOOTHILLS...

CITY           SKY/WX    TMP DP  RH WIND       PRES   REMARKS
COLO. SPRINGS  CLEAR     33  25  72 N16       30.12F WCI  23
A. F. ACADEMY  CLEAR     26  22  82 N14       30.13F WCI  15
ELLICOTT       CLEAR    N/A N/A N/A N9        30.12R
FALCON         CLEAR     28  24  83 N10       30.14S WCI  19
FORT CARSON    CLEAR     31  22  66 SW3       30.13R
LIMON          CLOUDY    34  25  69 NW21      30.13F WCI  22
MONUMENT HILL  CLEAR     21  21 100 S3        30.14F
TRINIDAD       CLEAR     33  24  69 SE3       30.19R
$$

COZ042>045-048>051-090-091-251000-
...NORTHEAST COLORADO...

CITY           SKY/WX    TMP DP  RH WIND       PRES   REMARKS
GREELEY ARPT   CLEAR     30  19  64 S6        30.12R WCI  24
AKRON          CLEAR     34  25  69 NW20      30.09S WCI  23
BURLINGTON     CLEAR     37  26  64 NW18      30.08S
WRAY           CLEAR     39  27  62 NW18G30   30.06R
STERLING       CLEAR     39  30  70 N20G26    30.10R
HOLYOKE        CLEAR     39  27  60 NW18G26   30.05R
FORT MORGAN    CLEAR     36  26  65 N16       30.12S
$$

COZ086-089-092>099-251000-
...SOUTHEAST COLORADO...

CITY           SKY/WX    TMP DP  RH WIND       PRES   REMARKS
PUEBLO         CLEAR     32  25  75 CALM      30.17R
LA JUNTA       CLEAR     37  27  67 NW8       30.16R
LAMAR          PTCLDY    42  26  53 N23G33    30.05F
SPRINGFIELD      N/A     36  27  69 N20       30.11R
$$


USA.gov is the U.S. government's official web portal to all federal, state and local government web resources and services.